[[{"header":{"parameterUnit":"m.s-1","parameterCategory":1,"la1":30.2991,"la2":30.254,"lo1":-89.0895,"lo2":-89.0444,"dy":0.0017,"dx":0.0017,"nx":28,"ny":28,"refTime":"2025-04-16T21:00:00:Z","depth":0,"parameterNumber":2,"parameterNumberName":"U-component_of_WINDS"},"data":[0,0,0,0,0,0,0,0,0,0,0,0,0,0,0,0,0,0,0,0,0,0,0,0,0,0,0,0,0,0,0,0,0,0,0,0,0,0,0,0,0,0,0,0,0,0,0,0,0,0,0,0,0,0,0,0,0,0,-2.6868,-2.6868,0,-2.6899,-2.6899,-2.69,-2.6893,-2.6893,-2.6892,-2.6892,-2.6923,-2.6924,-2.6925,0,0,0,0,0,0,0,0,0,0,0,0,0,-2.6805,-2.6806,-2.6868,-2.6868,-2.6869,-2.6899,-2.6899,-2.69,-2.6894,-2.6893,-2.6892,-2.6892,-2.6922,-2.6924,-2.6926,0,0,0,0,0,0,0,0,0,0,0,0,0,-2.6834,-2.6806,-2.6868,-2.6869,-2.687,-2.6899,-2.6899,-2.69,-2.6894,-2.6893,-2.6892,-2.6891,-2.6922,-2.6924,-2.6926,-2.6955,0,0,-2.6932,-2.6933,0,0,0,0,0,0,0,0,-2.6832,-2.6836,-2.6869,-2.6869,-2.687,-2.6892,-2.6888,-2.6919,-2.6894,-2.6885,-2.6892,-2.6891,-2.6913,-2.6916,-2.6923,-2.6957,-2.6958,-2.6932,-2.6933,-2.6934,-2.6935,0,0,0,0,0,0,0,-2.683,-2.6835,-2.688,-2.6869,-2.687,-2.6869,-2.6872,-2.6894,-2.6903,-2.6885,-2.6885,-2.6889,-2.6913,-2.6921,-2.6924,-2.6959,-2.6932,-2.6934,-2.6935,-2.6936,-2.7019,-2.702,0,0,0,0,0,0,-2.6827,-2.6833,-2.6879,-2.6881,-2.6848,-2.6871,-2.6874,-2.6885,-2.6903,-2.6905,-2.6889,-2.6888,-2.6918,-2.6922,-2.6925,-2.6961,-2.6934,-2.6936,-2.6937,-2.7018,-2.7019,-2.702,0,0,0,0,0,0,-2.6826,-2.6832,-2.6878,-2.6857,-2.6863,-2.6873,-2.6885,-2.6886,-2.6895,-2.6906,-2.6908,-2.6896,-2.6918,-2.6922,-2.6948,-2.6962,-2.6937,-2.6939,-2.7017,-2.7019,-2.702,-2.7033,0,0,0,0,0,0,-2.6824,-2.6831,-2.6842,-2.6857,-2.6864,-2.69,-2.6886,-2.6888,-2.6898,-2.6897,-2.6913,-2.6914,-2.6918,-2.6945,-2.695,-2.6964,-2.6941,-2.7016,-2.7018,-2.7019,-2.7031,-2.7034,-2.7037,0,0,0,0,0,-2.6822,-2.6844,-2.6842,-2.6848,-2.6878,-2.6901,-2.6905,-2.6908,-2.6899,-2.6911,-2.6918,-2.6914,-2.696,-2.6948,-2.6953,-2.6968,-2.7015,-2.7017,-2.7019,-2.7029,-2.7034,-2.7037,0,0,0,0,0,0,-2.6829,-2.6846,-2.6844,-2.6872,-2.6885,-2.69,-2.6914,-2.6912,-2.6928,-2.6926,-2.693,-2.6933,-2.6959,-2.6967,-2.6953,-2.6999,-2.6986,-2.699,-2.6992,-2.6996,-2.6999,-2.6996,-2.6942,0,0,0,0,0,-2.6834,-2.6851,-2.6865,-2.6888,-2.6895,-2.6904,-2.6914,-2.6915,-2.6929,-2.6934,-2.6944,-2.6957,-2.6975,-2.6986,-2.7003,-2.7033,-2.7036,-2.7046,-2.7049,-2.7052,-2.7054,-2.7071,-2.7076,-2.7028,-2.7028,-2.7028,0,0,-2.6844,-2.6855,-2.6866,-2.689,-2.69,-2.6918,-2.6908,-2.6927,-2.6941,-2.6937,-2.6962,-2.697,-2.6986,-2.7014,-2.7027,-2.7021,-2.7069,-2.7055,-2.7057,-2.7058,-2.7074,-2.7078,-2.7082,-2.7029,-2.7029,-2.7029,0,0,-2.6871,-2.6881,-2.6902,-2.6913,-2.6929,-2.6935,-2.694,-2.6956,-2.6961,-2.6987,-2.6985,-2.7001,-2.7032,-2.7043,-2.7053,-2.7087,-2.7084,-2.7093,-2.7108,-2.7125,-2.7128,-2.7132,-2.7143,-2.7148,-2.7096,-2.7096,-2.7096,0,-2.688,-2.6907,-2.6912,-2.6932,-2.6943,-2.6943,-2.6964,-2.6974,-2.6995,-2.7003,-2.6997,-2.7036,-2.7046,-2.7077,-2.7085,-2.7094,-2.71,-2.709,-2.7128,-2.7131,-2.7134,-2.7145,-2.715,-2.7096,-2.7096,-2.7096,-2.7096,0,-2.6919,-2.6938,-2.6953,-2.6974,-2.6987,-2.7007,-2.7015,-2.7028,-2.703,-2.7037,-2.7063,-2.7076,-2.7096,-2.7104,-2.7105,-2.7136,-2.7132,-2.7127,-2.7114,-2.7139,-2.715,-2.7154,-2.7098,-2.7097,-2.7097,-2.7097,0,0,-2.6948,-2.6973,-2.6978,-2.6988,-2.7008,-2.7023,-2.7044,-2.7064,-2.7075,-2.709,-2.7108,-2.7135,-2.7131,-2.7142,-2.7145,-2.716,-2.7186,-2.7153,-2.7154,-2.7158,-2.7221,-2.7223,-2.7228,-2.7186,-2.7186,-2.7187,-2.7219,0,-2.6976,-2.7013,-2.7019,-2.7051,-2.7069,-2.707,-2.7089,-2.7103,-2.7111,-2.7128,-2.7137,-2.7156,-2.7149,-2.7156,-2.7171,-2.718,-2.7199,-2.7178,-2.7201,-2.7202,-2.7195,-2.7234,-2.7236,-2.7265,-2.7223,-2.7224,-2.7225,0,-2.7012,-2.703,-2.7064,-2.7082,-2.709,-2.7106,-2.7126,-2.7142,-2.7159,-2.7164,-2.7178,-2.718,-2.7203,-2.7191,-2.7223,-2.7208,-2.7219,-2.7225,-2.7227,-2.7227,-2.7213,-2.7234,-2.7275,-2.7279,-2.7231,-2.7231,-2.723,0,-2.7029,-2.7061,-2.7086,-2.7095,-2.7117,-2.7128,-2.7138,-2.7154,-2.7167,-2.7184,-2.7192,-2.7212,-2.7223,-2.7239,-2.7246,-2.7237,-2.7278,-2.7267,-2.7282,-2.7282,-2.7288,-2.7287,-2.733,-2.7298,-2.7298,-2.7298,-2.7298,0,-2.7059,-2.7079,-2.7094,-2.7109,-2.7133,-2.7141,-2.7164,-2.7174,-2.7189,-2.7206,-2.7209,-2.7225,-2.7235,-2.7253,-2.726,-2.7285,-2.729,-2.7295,-2.7296,-2.7293,-2.7293,-2.7299,-2.7296,-2.7299,-2.7299,-2.7298,-2.7298,0,-2.708,-2.7091,-2.7118,-2.7138,-2.7143,-2.716,-2.7176,-2.7192,-2.7201,-2.7223,-2.7228,-2.7242,-2.7264,-2.7274,-2.7301,-2.7305,-2.7333,-2.7334,-2.7327,-2.7327,-2.7342,-2.734,-2.7388,-2.7395,-2.736,-2.736,-2.7361,0,-2.7097,-2.7113,-2.7135,-2.7147,-2.7158,-2.7177,-2.719,-2.7199,-2.7212,-2.7234,-2.7247,-2.7269,-2.7286,-2.7321,-2.7334,-2.7354,-2.7355,-2.737,-2.7357,-2.7355,-2.7354,-2.7352,-2.7354,-2.7372,-2.7372,-2.7372,-2.7373,0,-2.7127,-2.7132,-2.715,-2.7171,-2.7186,-2.7203,-2.7219,-2.7229,-2.7241,-2.7256,-2.7279,-2.7293,-2.7321,-2.7342,-2.7364,-2.7375,-2.7376,-2.7377,-2.7381,-2.7378,-2.7373,-2.7375,-2.7332,-2.7375,-2.7375,-2.7375,-2.7375,-2.7374,-2.7146,-2.716,-2.7178,-2.7199,-2.7213,-2.7229,-2.7244,-2.7256,-2.7274,-2.7298,-2.7303,-2.7327,-2.7345,-2.7375,-2.7386,-2.7405,-2.7402,-2.7408,-2.741,-2.7411,-2.7411,-2.7372,-2.741,-2.741,-2.741,-2.7409,-2.7409,0,-2.7174,-2.7187,-2.7206,-2.7229,-2.7246,-2.7247,-2.7265,-2.7279,-2.73,-2.7317,-2.7335,-2.7361,-2.7383,-2.7398,-2.7421,-2.7433,-2.7434,-2.7438,-2.7437,-2.7439,-2.7413,-2.7407,-2.7437,-2.7437,-2.7437,-2.7437,-2.7437,-2.7437,-2.7191,-2.7216,-2.7223,-2.7256,-2.7268,-2.7291,-2.7302,-2.7317,-2.7331,-2.736,-2.7378,-2.7388,-2.7405,-2.7429,-2.7449,-2.7453,-2.7461,-2.7465,-2.7469,-2.7444,-2.7441,-2.7438,-2.7432,-2.7467,-2.7467,-2.7493,-2.7493,-2.7493]},{"header":{"parameterUnit":"m.s-1","parameterCategory":1,"la1":30.2991,"la2":30.254,"lo1":-89.0895,"lo2":-89.0444,"dy":0.0017,"dx":0.0017,"nx":28,"ny":28,"refTime":"2025-04-16T21:00:00:Z","depth":0,"parameterNumber":3,"parameterNumberName":"V-component_of_WINDS"},"data":[0,0,0,0,0,0,0,0,0,0,0,0,0,0,0,0,0,0,0,0,0,0,0,0,0,0,0,0,0,0,0,0,0,0,0,0,0,0,0,0,0,0,0,0,0,0,0,0,0,0,0,0,0,0,0,0,0,0,4.733,4.7329,0,4.7287,4.7287,4.7286,4.7282,4.7282,4.7282,4.7283,4.7233,4.7231,4.7229,0,0,0,0,0,0,0,0,0,0,0,0,0,4.7401,4.74,4.733,4.7329,4.7329,4.7287,4.7287,4.7286,4.7282,4.7282,4.7283,4.7283,4.7233,4.7231,4.7229,0,0,0,0,0,0,0,0,0,0,0,0,0,4.7365,4.7399,4.733,4.7321,4.732,4.7288,4.7287,4.7286,4.7281,4.7282,4.7283,4.7283,4.7234,4.7232,4.7229,4.7199,0,0,4.7221,4.722,0,0,0,0,0,0,0,0,4.7367,4.7363,4.7323,4.7322,4.7321,4.7291,4.7294,4.7257,4.7281,4.7296,4.7283,4.7284,4.7251,4.7247,4.7237,4.7197,4.7195,4.7221,4.7219,4.7218,4.7217,0,0,0,0,0,0,0,4.737,4.7364,4.7313,4.7323,4.7321,4.7318,4.7314,4.7287,4.727,4.7295,4.7294,4.729,4.725,4.724,4.7236,4.7194,4.7221,4.7218,4.7217,4.7216,4.7129,4.7128,0,0,0,0,0,0,4.7375,4.7367,4.7314,4.7311,4.7346,4.7316,4.7311,4.7299,4.727,4.7267,4.7289,4.729,4.7244,4.7239,4.7234,4.7199,4.7218,4.7216,4.7214,4.7129,4.7128,4.7128,0,0,0,0,0,0,4.7376,4.737,4.7316,4.7339,4.7332,4.7314,4.7301,4.7298,4.7288,4.7266,4.7263,4.7282,4.7244,4.7238,4.7209,4.7197,4.7214,4.7212,4.713,4.7129,4.7128,4.7127,0,0,0,0,0,0,4.7378,4.7371,4.736,4.7339,4.7331,4.7292,4.73,4.7297,4.7284,4.7284,4.7259,4.7255,4.7245,4.7213,4.7206,4.7194,4.721,4.7131,4.713,4.7128,4.7128,4.7126,4.7124,0,0,0,0,0,4.7381,4.736,4.736,4.7354,4.7318,4.7292,4.7287,4.7277,4.7283,4.7272,4.7259,4.7256,4.72,4.721,4.7202,4.7189,4.7132,4.713,4.7128,4.7129,4.7127,4.7125,0,0,0,0,0,0,4.7378,4.7357,4.7357,4.7329,4.7312,4.7291,4.7277,4.7275,4.7255,4.7256,4.7243,4.7237,4.7208,4.7195,4.7207,4.7159,4.7166,4.7163,4.7169,4.7166,4.7165,4.7168,4.7208,0,0,0,0,0,4.7374,4.7357,4.7339,4.7316,4.7308,4.7294,4.7282,4.7277,4.7258,4.7251,4.7235,4.7215,4.7194,4.7179,4.7158,4.7126,4.7121,4.7113,4.7112,4.711,4.7107,4.7091,4.7087,4.7122,4.7122,4.7122,0,0,4.7366,4.7353,4.7342,4.7315,4.7302,4.7283,4.7288,4.7267,4.7252,4.7247,4.7219,4.7207,4.7184,4.7155,4.714,4.7143,4.7097,4.7108,4.7107,4.7105,4.7089,4.7085,4.7082,4.7121,4.7121,4.7121,0,0,4.7342,4.733,4.731,4.7297,4.7279,4.727,4.7265,4.7244,4.7237,4.721,4.7205,4.7187,4.7149,4.7134,4.7121,4.7093,4.7089,4.7086,4.7076,4.706,4.7057,4.7055,4.7045,4.7042,4.7083,4.7083,4.7083,0,4.7333,4.7306,4.7299,4.728,4.7268,4.7265,4.7244,4.7231,4.7205,4.7196,4.72,4.7155,4.7139,4.7106,4.71,4.7089,4.7083,4.7089,4.7059,4.7056,4.7053,4.7044,4.704,4.7083,4.7083,4.7083,4.7083,0,4.7297,4.7278,4.7264,4.7243,4.7229,4.7209,4.7198,4.7184,4.718,4.7171,4.7143,4.7125,4.71,4.7092,4.7086,4.7058,4.706,4.7062,4.7068,4.705,4.7041,4.7037,4.7083,4.7083,4.7083,4.7083,0,0,4.7268,4.7245,4.724,4.7231,4.721,4.7195,4.7174,4.7153,4.7142,4.7124,4.7106,4.7076,4.7077,4.7063,4.7055,4.7041,4.7021,4.7044,4.7043,4.7041,4.6989,4.6989,4.6985,4.7019,4.7018,4.7018,4.6992,0,4.7242,4.7208,4.7202,4.7171,4.7154,4.7151,4.7133,4.7118,4.7109,4.7091,4.708,4.7059,4.7063,4.7054,4.704,4.7027,4.7011,4.7028,4.7001,4.7,4.7007,4.698,4.6979,4.6955,4.6988,4.6987,4.6987,0,4.7206,4.7191,4.716,4.7143,4.7136,4.712,4.7101,4.7085,4.7067,4.7061,4.7046,4.7041,4.7019,4.7027,4.6995,4.7007,4.6996,4.6987,4.6986,4.6983,4.6992,4.6977,4.6947,4.6944,4.6981,4.6982,4.6982,0,4.7189,4.716,4.7139,4.713,4.711,4.71,4.709,4.7074,4.7062,4.7044,4.7036,4.7015,4.7003,4.6987,4.6976,4.6982,4.6945,4.6952,4.6939,4.6939,4.693,4.6931,4.6899,4.6923,4.6923,4.6923,4.6923,0,4.716,4.7141,4.7131,4.7117,4.7096,4.7089,4.7067,4.7057,4.7043,4.7027,4.7022,4.7006,4.6993,4.6975,4.6966,4.6941,4.6935,4.6929,4.6927,4.693,4.6931,4.6922,4.6923,4.6922,4.6922,4.6922,4.6923,0,4.7138,4.713,4.7106,4.709,4.7086,4.7071,4.7056,4.7042,4.7034,4.7013,4.7007,4.6993,4.6972,4.696,4.6932,4.6926,4.6899,4.6897,4.6905,4.6904,4.6892,4.6894,4.6854,4.6848,4.6875,4.6875,4.6875,0,4.712,4.7106,4.709,4.708,4.7071,4.7054,4.7043,4.7035,4.7023,4.7003,4.6992,4.6971,4.6954,4.692,4.6906,4.6885,4.6882,4.687,4.6879,4.6883,4.6883,4.6884,4.6883,4.6868,4.6868,4.6868,4.6868,0,4.709,4.7087,4.7072,4.7056,4.7044,4.703,4.7016,4.7008,4.6997,4.6984,4.6964,4.6951,4.6924,4.6903,4.6882,4.687,4.6867,4.6865,4.6861,4.6864,4.6869,4.6867,4.6901,4.6866,4.6866,4.6866,4.6866,4.6866,4.7069,4.7057,4.7044,4.7028,4.7018,4.7005,4.6992,4.6983,4.6967,4.6947,4.6942,4.6921,4.6904,4.6875,4.6863,4.6846,4.6848,4.6841,4.684,4.6839,4.6839,4.6873,4.6841,4.6841,4.6841,4.6841,4.6841,0,4.7039,4.7031,4.7017,4.6999,4.6986,4.6987,4.6972,4.6961,4.6943,4.6929,4.6914,4.689,4.6871,4.6856,4.6835,4.6824,4.6822,4.6819,4.6819,4.6817,4.6838,4.6844,4.6821,4.6821,4.6821,4.6821,4.6821,4.6821,4.7022,4.7002,4.6998,4.6973,4.6964,4.6946,4.6937,4.6926,4.6915,4.689,4.6875,4.6866,4.6852,4.6831,4.6812,4.6808,4.6801,4.6798,4.6794,4.6813,4.6815,4.6817,4.6823,4.6796,4.6796,4.6774,4.6774,4.6774]}]]